• In Uzbekistan
  • List of Countries
  • For 7 days
  • Water Temperature
  • Satellite Maps
  • Weather Map
  • Weather Widgets
  • user-avatar
    Login

    Hourly Weather Pluskota

    Today, 19 February, Tuesday

    Time Temperature Precipitation Wind Pressure Humidity
    00:00 +4°C° 0 mm 2 mps 752 mmHg 83%
    01:00 +4°C° 0 mm 2 mps 751 mmHg 84%
    02:00 +3°C° 0 mm 2 mps 751 mmHg 85%
    03:00 +3°C° 0 mm 2 mps 750 mmHg 85%
    04:00 +3°C° 0 mm 2 mps 750 mmHg 85%
    05:00 +2°C° 0 mm 3 mps 749 mmHg 86%
    06:00 +2°C° 0 mm 3 mps 749 mmHg 87%
    07:00 +2°C° 0 mm 2 mps 749 mmHg 89%
    08:00 +2°C° 0 mm 3 mps 749 mmHg 85%
    09:00 +4°C° 0 mm 4 mps 749 mmHg 81%
    10:00 +5°C° 0 mm 5 mps 749 mmHg 77%
    11:00 +6°C° 0 mm 5 mps 749 mmHg 76%
    12:00 +7°C° 0 mm 5 mps 749 mmHg 74%
    13:00 +8°C° 0 mm 5 mps 749 mmHg 71%
    14:00 +8°C° 0.1 mm 5 mps 749 mmHg 72%
    15:00 +7°C° 0.1 mm 5 mps 749 mmHg 73%
    16:00 +7°C° 0.1 mm 5 mps 749 mmHg 75%
    17:00 +6°C° 0 mm 5 mps 749 mmHg 77%
    18:00 +5°C° 0 mm 4 mps 749 mmHg 79%
    19:00 +5°C° 0 mm 4 mps 750 mmHg 81%
    20:00 +4°C° 0 mm 4 mps 750 mmHg 82%
    21:00 +4°C° 0 mm 4 mps 750 mmHg 83%
    22:00 +3°C° 0 mm 5 mps 750 mmHg 84%
    23:00 +3°C° 0 mm 5 mps 750 mmHg 84%

    Tomorrow, 20 February, Wednesday

    Time Temperature Precipitation Wind Pressure Humidity
    00:00 +3°C° 0 mm 5 mps 750 mmHg 85%
    01:00 +3°C° 0 mm 5 mps 750 mmHg 85%
    02:00 +3°C° 0 mm 5 mps 750 mmHg 84%
    03:00 +3°C° 0 mm 5 mps 750 mmHg 83%
    04:00 +3°C° 0 mm 6 mps 751 mmHg 82%
    05:00 +3°C° 0.1 mm 6 mps 751 mmHg 82%
    06:00 +3°C° 0.1 mm 5 mps 751 mmHg 81%
    07:00 +3°C° 0.1 mm 5 mps 751 mmHg 81%
    08:00 +3°C° 0.1 mm 5 mps 752 mmHg 80%
    09:00 +3°C° 0.1 mm 5 mps 752 mmHg 79%
    10:00 +3°C° 0.1 mm 5 mps 753 mmHg 79%
    11:00 +3°C° 0.1 mm 5 mps 753 mmHg 77%
    12:00 +5°C° 0.1 mm 5 mps 753 mmHg 75%
    13:00 +5°C° 0.1 mm 5 mps 754 mmHg 73%
    14:00 +5°C° 0 mm 5 mps 754 mmHg 74%
    15:00 +5°C° 0 mm 4 mps 754 mmHg 74%
    16:00 +5°C° 0 mm 4 mps 755 mmHg 74%
    17:00 +5°C° 0.1 mm 3 mps 755 mmHg 78%
    18:00 +5°C° 0.1 mm 3 mps 755 mmHg 82%
    19:00 +5°C° 0.1 mm 2 mps 755 mmHg 85%
    20:00 +5°C° 0 mm 2 mps 755 mmHg 87%
    21:00 +5°C° 0 mm 2 mps 756 mmHg 88%
    22:00 +5°C° 0 mm 2 mps 756 mmHg 90%
    23:00 +4°C° 0.1 mm 3 mps 756 mmHg 91%

    Day after tomorrow, 21 February, Thursday

    Time Temperature Precipitation Wind Pressure Humidity
    00:00 +4°C° 0.1 mm 3 mps 756 mmHg 92%
    01:00 +4°C° 0.1 mm 3 mps 756 mmHg 93%
    02:00 +4°C° 0.1 mm 3 mps 756 mmHg 92%
    03:00 +4°C° 0.1 mm 3 mps 755 mmHg 92%
    04:00 +4°C° 0.1 mm 3 mps 755 mmHg 91%
    05:00 +4°C° 0.6 mm 4 mps 755 mmHg 91%
    06:00 +4°C° 0.6 mm 4 mps 754 mmHg 91%
    07:00 +3°C° 0.6 mm 5 mps 754 mmHg 91%
    08:00 +5°C° 0.7 mm 5 mps 754 mmHg 90%
    09:00 +5°C° 0.7 mm 5 mps 754 mmHg 89%
    10:00 +5°C° 0.7 mm 5 mps 754 mmHg 88%
    11:00 +4°C° 0.4 mm 6 mps 754 mmHg 87%
    12:00 +5°C° 0.4 mm 6 mps 754 mmHg 87%
    13:00 +5°C° 0.4 mm 6 mps 753 mmHg 86%
    14:00 +5°C° 0.3 mm 6 mps 753 mmHg 87%
    15:00 +5°C° 0.3 mm 6 mps 753 mmHg 88%
    16:00 +6°C° 0.3 mm 5 mps 753 mmHg 89%
    17:00 +6°C° 0.7 mm 5 mps 754 mmHg 89%
    18:00 +6°C° 0.7 mm 5 mps 754 mmHg 89%
    19:00 +6°C° 0.7 mm 5 mps 754 mmHg 90%
    20:00 +6°C° 0.2 mm 5 mps 755 mmHg 89%
    21:00 +6°C° 0.2 mm 5 mps 755 mmHg 89%
    22:00 +6°C° 0.2 mm 5 mps 756 mmHg 88%
    23:00 +5°C° 0.2 mm 5 mps 756 mmHg 87%

    22 February, Friday

    Time Temperature Precipitation Wind Pressure Humidity
    00:00 +5°C° 0.2 mm 5 mps 757 mmHg 87%
    01:00 +3°C° 0.2 mm 5 mps 758 mmHg 86%
    02:00 +2°C° 0 mm 5 mps 759 mmHg 84%
    03:00 +1°C° 0 mm 5 mps 760 mmHg 82%
    04:00 -1°C° 0 mm 4 mps 761 mmHg 79%
    05:00 -1°C° 0 mm 4 mps 762 mmHg 78%
    06:00 -1°C° 0 mm 3 mps 763 mmHg 76%
    07:00 -1°C° 0 mm 3 mps 764 mmHg 74%
    08:00 -1°C° 0 mm 3 mps 765 mmHg 69%
    09:00 -1°C° 0 mm 3 mps 766 mmHg 64%
    10:00 -1°C° 0 mm 4 mps 767 mmHg 59%
    11:00 0°C° 0 mm 3 mps 767 mmHg 55%
    12:00 +1°C° 0 mm 3 mps 768 mmHg 51%
    13:00 +1°C° 0 mm 3 mps 768 mmHg 47%
    14:00 +2°C° 0 mm 2 mps 768 mmHg 46%
    15:00 +2°C° 0 mm 2 mps 769 mmHg 45%
    16:00 +2°C° 0 mm 2 mps 769 mmHg 43%
    17:00 +1°C° 0 mm 2 mps 769 mmHg 47%
    18:00 -1°C° 0 mm 2 mps 769 mmHg 51%
    19:00 -2°C° 0 mm 2 mps 770 mmHg 55%
    20:00 0°C° 0 mm 1 mps 770 mmHg 56%
    21:00 0°C° 0 mm 1 mps 770 mmHg 56%
    22:00 0°C° 0 mm 1 mps 770 mmHg 57%
    23:00 0°C° 0 mm 1 mps 770 mmHg 56%

    23 February, Saturday

    Time Temperature Precipitation Wind Pressure Humidity
    00:00 0°C° 0 mm 1 mps 770 mmHg 55%
    01:00 0°C° 0 mm 1 mps 770 mmHg 55%
    02:00 0°C° 0 mm 1 mps 770 mmHg 55%
    03:00 0°C° 0 mm 1 mps 770 mmHg 55%
    04:00 0°C° 0 mm 1 mps 770 mmHg 55%
    05:00 0°C° 0 mm 1 mps 770 mmHg 55%
    06:00 0°C° 0 mm 1 mps 769 mmHg 55%
    07:00 0°C° 0 mm 1 mps 769 mmHg 55%
    08:00 +1°C° 0 mm 1 mps 769 mmHg 51%
    09:00 +2°C° 0 mm 1 mps 769 mmHg 46%
    10:00 +3°C° 0 mm 1 mps 769 mmHg 42%
    11:00 +3°C° 0 mm 1 mps 769 mmHg 41%
    12:00 +3°C° 0 mm 1 mps 769 mmHg 41%
    13:00 +3°C° 0 mm 2 mps 768 mmHg 41%
    14:00 +3°C° 0 mm 2 mps 768 mmHg 43%
    15:00 +3°C° 0 mm 2 mps 768 mmHg 46%
    16:00 +5°C° 0 mm 1 mps 767 mmHg 48%
    17:00 +3°C° 0 mm 2 mps 767 mmHg 54%
    18:00 +2°C° 0 mm 2 mps 767 mmHg 60%
    19:00 +1°C° 0 mm 2 mps 767 mmHg 67%
    20:00 +1°C° 0 mm 2 mps 767 mmHg 69%
    21:00 +2°C° 0 mm 1 mps 767 mmHg 72%
    22:00 +2°C° 0 mm 1 mps 767 mmHg 75%
    23:00 +2°C° 0 mm 1 mps 767 mmHg 81%

    24 February, Sunday

    Time Temperature Precipitation Wind Pressure Humidity
    00:00 +1°C° 0 mm 2 mps 766 mmHg 87%
    01:00 -1°C° 0 mm 2 mps 766 mmHg 93%
    02:00 -1°C° 0 mm 2 mps 766 mmHg 95%
    03:00 +1°C° 0 mm 1 mps 766 mmHg 96%
    04:00 +1°C° 0 mm 1 mps 766 mmHg 97%
    05:00 +2°C° 0 mm 1 mps 766 mmHg 97%
    06:00 +2°C° 0 mm 1 mps 767 mmHg 97%
    07:00 +2°C° 0 mm 1 mps 767 mmHg 97%
    08:00 +3°C° 0 mm 1 mps 767 mmHg 94%
    09:00 +4°C° 0 mm 1 mps 767 mmHg 91%
    10:00 +4°C° 0 mm 1 mps 768 mmHg 87%
    11:00 +5°C° 0 mm 1 mps 768 mmHg 85%
    12:00 +5°C° 0 mm 1 mps 768 mmHg 82%
    13:00 +6°C° 0 mm 1 mps 768 mmHg 79%
    14:00 +6°C° 0 mm 1 mps 768 mmHg 79%
    15:00 +6°C° 0 mm 1 mps 768 mmHg 80%
    16:00 +6°C° 0 mm 1 mps 768 mmHg 81%
    17:00 +5°C° 0 mm 1 mps 768 mmHg 84%
    18:00 +3°C° 0 mm 0 mps 768 mmHg 88%
    19:00 +2°C° 0 mm 0 mps 768 mmHg 91%
    20:00 +2°C° 0 mm 0 mps 768 mmHg 92%
    21:00 +2°C° 0 mm 0 mps 768 mmHg 92%
    22:00 +1°C° 0 mm 0 mps 768 mmHg 93%
    23:00 +1°C° 0 mm 0 mps 768 mmHg 93%
    Show more